FW3636 Weather Reports


Display with metric or nautical units.
time (UTC)temp
F
wind
direction
speed
MPH
gust
MPH
rain 1hr
in
rain 24hr
in
rain mn
in
humidity
%
barometer
mb
20260906233503 94 212 5.0 11.0 0.00 0.00 0.00 20 1016.7
20260906233024 94 210 6.0 11.0 0.00 0.00 0.00 20 1016.6
20260906232503 95 227 5.0 7.0 0.00 0.00 0.00 20 1016.4
20260906232003 95 236 5.0 8.0 0.00 0.00 0.00 20 1016.4
20260906231503 94 210 6.0 8.0 0.00 0.00 0.00 20 1016.4
20260906231003 94 205 7.0 9.0 0.00 0.00 0.00 20 1016.6
20260906230503 94 207 7.0 9.0 0.00 0.00 0.00 20 1016.6
20260906230003 95 131 6.0 8.0 0.00 0.00 0.00 20 1016.6
20260906225503 95 131 6.0 8.0 0.00 0.00 0.00 20 1016.9
20260906225024 95 131 6.0 8.0 0.00 0.00 0.00 20 1016.8
20260906224524 95 131 6.0 8.0 0.00 0.00 0.00 20 1016.7
20260906224003 95 132 6.0 8.0 0.00 0.00 0.00 20 1016.7
20260906223503 95 142 5.0 8.0 0.00 0.00 0.00 20 1016.8
20260906223024 96 175 6.0 8.0 0.00 0.00 0.00 20 1016.7
20260906222524 96 183 7.0 10.0 0.00 0.00 0.00 20 1016.8
20260906222003 96 166 7.0 11.0 0.00 0.00 0.00 20 1016.8
20260906221503 96 115 5.0 11.0 0.00 0.00 0.00 20 1016.8
20260906221003 95 155 6.0 10.0 0.00 0.00 0.00 19 1016.9
20260906220503 96 175 8.0 10.0 0.00 0.00 0.00 19 1016.9
20260906220024 96 193 7.0 10.0 0.00 0.00 0.00 19 1017.4
20260906215524 95 233 6.0 10.0 0.00 0.00 0.00 19 1017.4
20260906215003 95 273 5.0 6.0 0.00 0.00 0.00 20 1017.5
20260906214503 96 271 4.0 6.0 0.00 0.00 0.00 19 1017.5
20260906214003 95 261 4.0 4.0 0.00 0.00 0.00 19 1017.8
20260906213503 95 309 3.0 4.0 0.00 0.00 0.00 19 1017.6
20260906213004 98 334 2.0 3.0 0.00 0.00 0.00 18 1017.6
20260906212524 98 316 2.0 3.0 0.00 0.00 0.00 18 1017.6
20260906212003 96 181 2.0 2.0 0.00 0.00 0.00 18 1018.0
20260906211503 95 198 3.0 6.0 0.00 0.00 0.00 18 1018.1
20260906211003 95 248 4.0 6.0 0.00 0.00 0.00 18 1018.3
20260906210503 96 329 4.0 6.0 0.00 0.00 0.00 18 1018.3
20260906210024 94 325 3.0 6.0 0.00 0.00 0.00 18 1018.3
20260906205524 95 322 3.0 4.0 0.00 0.00 0.00 17 1018.7
20260906205003 95 310 3.0 6.0 0.00 0.00 0.00 17 1018.5
20260906204524 95 292 3.0 6.0 0.00 0.00 0.00 17 1018.4
20260906204003 94 238 1.0 2.0 0.00 0.00 0.00 17 1018.5
20260906203503 94 238 1.0 2.0 0.00 0.00 0.00 17 1018.7
20260906203003 94 238 1.0 2.0 0.00 0.00 0.00 17 1018.9
20260906202503 94 238 1.0 2.0 0.00 0.00 0.00 17 1018.8
20260906202003 94 238 1.0 2.0 0.00 0.00 0.00 17 1018.9
20260906201503 94 238 1.0 2.0 0.00 0.00 0.00 17 1019.0
20260906201003 94 238 1.0 2.0 0.00 0.00 0.00 17 1018.8
20260906200503 94 238 1.0 2.0 0.00 0.00 0.00 17 1019.0
20260906200003 94 238 1.0 2.0 0.00 0.00 0.00 17 1019.2
20260906195503 94 238 1.0 2.0 0.00 0.00 0.00 17 1019.4
20260906195003 94 238 1.0 2.0 0.00 0.00 0.00 17 1019.4
20260906194503 94 239 2.0 6.0 0.00 0.00 0.00 17 1019.6
20260906194004 94 253 3.0 7.0 0.00 0.00 0.00 17 1019.2
20260906193503 94 321 3.0 7.0 0.00 0.00 0.00 18 1019.6
20260906193003 92 341 3.0 7.0 0.00 0.00 0.00 18 1019.5
20260906192503 93 4 2.0 6.0 0.00 0.00 0.00 18 1019.6
20260906192003 92 7 3.0 9.0 0.00 0.00 0.00 18 1019.6
20260906191503 91 5 3.0 9.0 0.00 0.00 0.00 18 1019.7
20260906191004 93 349 3.0 8.0 0.00 0.00 0.00 19 1019.7
20260906190503 93 331 2.0 6.0 0.00 0.00 0.00 19 1020.1
20260906190003 92 332 2.0 6.0 0.00 0.00 0.00 19 1020.2
20260906185503 94 230 2.0 6.0 0.00 0.00 0.00 18 1020.4
20260906185003 92 227 2.0 6.0 0.00 0.00 0.00 18 1020.4
20260906184503 91 297 1.0 6.0 0.00 0.00 0.00 19 1020.5
20260906184003 92 16 1.0 3.0 0.00 0.00 0.00 19 1020.4
20260906183504 91 23 2.0 4.0 0.00 0.00 0.00 19 1020.4
20260906183003 90 42 2.0 4.0 0.00 0.00 0.00 20 1020.8
20260906182503 94 94 2.0 7.0 0.00 0.00 0.00 18 1020.8
20260906182003 93 79 3.0 8.0 0.00 0.00 0.00 20 1020.9
20260906181503 94 71 2.0 8.0 0.00 0.00 0.00 20 1020.9
20260906181024 94 63 2.0 4.0 0.00 0.00 0.00 21 1021.0
20260906180503 93 41 2.0 4.0 0.00 0.00 0.00 21 1021.1
20260906180003 93 44 2.0 4.0 0.00 0.00 0.00 22 1021.3
20260906175524 93 43 2.0 6.0 0.00 0.00 0.00 23 1021.1
20260906175003 90 46 2.0 6.0 0.00 0.00 0.00 24 1021.0
20260906174503 90 35 2.0 6.0 0.00 0.00 0.00 24 1021.0
20260906174003 88 12 3.0 7.0 0.00 0.00 0.00 25 1021.0
20260906173524 89 13 3.0 7.0 0.00 0.00 0.00 26 1021.3
20260906173003 88 9 2.0 4.0 0.00 0.00 0.00 28 1021.2
20260906172524 87 12 2.0 6.0 0.00 0.00 0.00 28 1021.5
20260906172003 87 33 2.0 6.0 0.00 0.00 0.00 28 1021.7
20260906171503 89 55 2.0 7.0 0.00 0.00 0.00 28 1021.5
20260906171024 88 61 2.0 7.0 0.00 0.00 0.00 28 1021.6
20260906170503 90 55 2.0 7.0 0.00 0.00 0.00 27 1021.7
20260906170003 87 29 3.0 7.0 0.00 0.00 0.00 28 1021.5
20260906165525 85 35 3.0 7.0 0.00 0.00 0.00 29 1021.7
20260906165003 87 45 2.0 7.0 0.00 0.00 0.00 28 1021.7
20260906164503 86 21 3.0 6.0 0.00 0.00 0.00 28 1021.6
20260906164003 83 19 3.0 7.0 0.00 0.00 0.00 30 1021.7
20260906163503 83 23 3.0 7.0 0.00 0.00 0.00 31 1021.8
20260906163003 83 23 3.0 7.0 0.00 0.00 0.00 31 1021.9
20260906162503 83 18 3.0 6.0 0.00 0.00 0.00 31 1021.9
20260906162003 83 18 2.0 6.0 0.00 0.00 0.00 30 1021.7
20260906161524 83 34 2.0 8.0 0.00 0.00 0.00 30 1021.9
20260906161003 83 32 3.0 8.0 0.00 0.00 0.00 31 1021.8
20260906160503 83 25 3.0 7.0 0.00 0.00 0.00 30 1021.9
20260906160003 82 36 3.0 7.0 0.00 0.00 0.00 30 1022.1
20260906155504 83 48 3.0 7.0 0.00 0.00 0.00 29 1021.9
20260906155003 84 25 3.0 9.0 0.00 0.00 0.00 28 1021.9
20260906154503 83 26 3.0 9.0 0.00 0.00 0.00 29 1022.1
20260906154003 84 36 3.0 9.0 0.00 0.00 0.00 29 1021.9
20260906153503 82 30 4.0 9.0 0.00 0.00 0.00 30 1021.9
20260906153003 82 24 4.0 9.0 0.00 0.00 0.00 31 1021.8
20260906152503 81 17 5.0 9.0 0.00 0.00 0.00 31 1021.8
20260906152024 80 15 5.0 9.0 0.00 0.00 0.00 32 1021.7
20260906151503 81 9 5.0 10.0 0.00 0.00 0.00 31 1021.8
20260906151024 81 7 5.0 10.0 0.00 0.00 0.00 31 1021.7
20260906150503 80 9 4.0 9.0 0.00 0.00 0.00 33 1021.7
20260906150003 80 9 4.0 9.0 0.00 0.00 0.00 32 1021.9
20260906145503 80 8 3.0 7.0 0.00 0.00 0.00 31 1021.8
20260906145024 79 7 3.0 7.0 0.00 0.00 0.00 31 1021.8
20260906144503 78 2 3.0 6.0 0.00 0.00 0.00 32 1021.7
20260906144003 78 359 2.0 6.0 0.00 0.00 0.00 32 1021.8
20260906143503 77 358 1.0 3.0 0.00 0.00 0.00 32 1021.9
20260906143024 77 355 1.0 6.0 0.00 0.00 0.00 33 1021.6
20260906142503 76 352 1.0 6.0 0.00 0.00 0.00 33 1021.6
20260906142003 77 351 0.0 2.0 0.00 0.00 0.00 33 1021.8
20260906141503 78 351 0.0 2.0 0.00 0.00 0.00 32 1021.6
20260906141003 76 350 1.0 2.0 0.00 0.00 0.00 35 1021.6
20260906140503 75 349 1.0 2.0 0.00 0.00 0.00 35 1021.9
20260906140003 74 347 1.0 3.0 0.00 0.00 0.00 36 1021.3
20260906135503 73 347 1.0 3.0 0.00 0.00 0.00 37 1021.6
20260906135003 73 346 0.0 3.0 0.00 0.00 0.00 36 1021.3
20260906134503 73 346 1.0 2.0 0.00 0.00 0.00 35 1021.5
20260906134003 73 345 1.0 2.0 0.00 0.00 0.00 35 1021.0
20260906133524 72 345 1.0 3.0 0.00 0.00 0.00 35 1021.1
20260906133003 72 345 1.0 3.0 0.00 0.00 0.00 36 1021.1
20260906132503 71 345 1.0 4.0 0.00 0.00 0.00 36 1021.1
20260906132024 71 345 3.0 6.0 0.00 0.00 0.00 36 1021.1
20260906131503 71 345 3.0 6.0 0.00 0.00 0.00 37 1021.1
20260906131003 71 345 2.0 4.0 0.00 0.00 0.00 37 1020.9
20260906130524 70 346 1.0 3.0 0.00 0.00 0.00 37 1021.0
20260906130024 70 346 1.0 2.0 0.00 0.00 0.00 38 1021.2
20260906125503 70 346 2.0 4.0 0.00 0.00 0.00 39 1021.1
20260906125003 70 346 3.0 4.0 0.00 0.00 0.00 38 1020.9
20260906124503 70 346 2.0 4.0 0.00 0.00 0.00 39 1020.9
20260906124003 70 346 2.0 3.0 0.00 0.00 0.00 40 1020.9
20260906123503 71 346 2.0 2.0 0.00 0.00 0.00 40 1021.0
20260906123003 71 346 1.0 2.0 0.00 0.00 0.00 40 1020.8
20260906122503 72 346 1.0 2.0 0.00 0.00 0.00 38 1021.0
20260906122003 71 346 1.0 2.0 0.00 0.00 0.00 39 1021.1
20260906121525 71 346 1.0 2.0 0.00 0.00 0.00 39 1020.9
20260906121003 71 346 0.0 1.0 0.00 0.00 0.00 40 1020.8
20260906120503 70 346 0.0 1.0 0.00 0.00 0.00 41 1020.9
20260906120003 71 0 0.0 0.0 0.00 0.00 0.00 40 1020.8
20260906115503 72 346 1.0 2.0 0.00 0.00 0.00 39 1020.8
20260906115003 72 346 2.0 4.0 0.00 0.00 0.00 39 1020.6
20260906114503 72 346 2.0 4.0 0.00 0.00 0.00 39 1020.8
20260906114003 72 346 1.0 3.0 0.00 0.00 0.00 39 1020.9
20260906113503 72 346 1.0 2.0 0.00 0.00 0.00 39 1020.9
20260906113003 72 346 1.0 2.0 0.00 0.00 0.00 39 1020.8
20260906112504 72 346 1.0 2.0 0.00 0.00 0.00 39 1020.9
20260906112003 73 346 1.0 2.0 0.00 0.00 0.00 39 1021.1
20260906111524 73 346 0.0 1.0 0.00 0.00 0.00 39 1021.0
20260906111003 73 346 0.0 1.0 0.00 0.00 0.00 39 1021.0
20260906110524 73 346 0.0 1.0 0.00 0.00 0.00 40 1021.0
20260906110003 73 346 0.0 1.0 0.00 0.00 0.00 40 1020.8
20260906105503 73 0 0.0 0.0 0.00 0.00 0.00 41 1020.6
20260906105003 73 0 0.0 1.0 0.00 0.00 0.00 40 1020.8
20260906104503 73 345 0.0 2.0 0.00 0.00 0.00 40 1020.6
20260906104024 74 345 0.0 2.0 0.00 0.00 0.00 39 1020.5
20260906103524 74 345 0.0 2.0 0.00 0.00 0.00 39 1020.6
20260906103003 74 345 0.0 2.0 0.00 0.00 0.00 38 1020.4
20260906102503 74 345 1.0 2.0 0.00 0.00 0.00 35 1020.4
20260906102003 74 345 1.0 3.0 0.00 0.00 0.00 35 1020.4
20260906101503 75 345 1.0 3.0 0.00 0.00 0.00 34 1020.4
20260906101003 76 345 1.0 2.0 0.00 0.00 0.00 34 1020.3
20260906100503 76 345 1.0 2.0 0.00 0.00 0.00 34 1020.5
20260906100003 76 345 2.0 4.0 0.00 0.00 0.00 33 1020.6
20260906095503 76 345 2.0 4.0 0.00 0.00 0.00 33 1020.6
20260906095024 76 345 2.0 4.0 0.00 0.00 0.00 33 1020.3
20260906094503 76 342 2.0 6.0 0.00 0.00 0.00 33 1020.2
20260906094003 76 340 3.0 7.0 0.00 0.00 0.00 33 1020.2
20260906093503 77 340 4.0 8.0 0.00 0.00 0.00 32 1020.4
20260906093003 77 339 4.0 8.0 0.00 0.00 0.00 32 1020.2
20260906092503 77 337 5.0 8.0 0.00 0.00 0.00 32 1020.1
20260906092003 77 334 6.0 8.0 0.00 0.00 0.00 32 1020.1
20260906091503 77 333 6.0 8.0 0.00 0.00 0.00 32 1020.1
20260906091003 77 332 6.0 8.0 0.00 0.00 0.00 32 1020.1
20260906090503 77 330 6.0 7.0 0.00 0.00 0.00 33 1020.1
20260906090003 76 330 5.0 7.0 0.00 0.00 0.00 33 1019.8
20260906085503 76 331 5.0 7.0 0.00 0.00 0.00 33 1020.1
20260906085003 77 333 4.0 7.0 0.00 0.00 0.00 33 1019.9
20260906084503 76 333 4.0 6.0 0.00 0.00 0.00 33 1020.1
20260906084003 76 335 5.0 6.0 0.00 0.00 0.00 34 1020.1
20260906083503 77 337 4.0 6.0 0.00 0.00 0.00 34 1020.1
20260906083024 76 338 4.0 6.0 0.00 0.00 0.00 34 1020.3
20260906082503 76 339 4.0 6.0 0.00 0.00 0.00 34 1020.3
20260906082003 76 340 4.0 6.0 0.00 0.00 0.00 34 1020.1
20260906081503 76 340 3.0 6.0 0.00 0.00 0.00 34 1020.4
20260906081003 77 340 4.0 6.0 0.00 0.00 0.00 34 1020.2
20260906080503 77 339 4.0 6.0 0.00 0.00 0.00 34 1020.4
20260906080003 76 338 5.0 7.0 0.00 0.00 0.00 34 1020.5
20260906075503 76 339 5.0 8.0 0.00 0.00 0.00 34 1020.5
20260906075024 77 338 6.0 8.0 0.00 0.00 0.00 34 1020.8
20260906074524 77 334 6.0 7.0 0.00 0.00 0.00 33 1020.8
20260906074003 77 327 5.0 7.0 0.00 0.00 0.00 34 1020.6
20260906073503 76 317 4.0 7.0 0.00 0.00 0.00 34 1020.5
20260906073003 77 311 4.0 7.0 0.00 0.00 0.00 34 1020.5
20260906072503 77 310 4.0 7.0 0.00 0.00 0.00 34 1020.6
20260906072003 77 305 4.0 7.0 0.00 0.00 0.00 33 1020.5
20260906071503 76 294 4.0 6.0 0.00 0.00 0.00 34 1020.4
20260906071003 77 284 2.0 4.0 0.00 0.00 0.00 34 1020.5
20260906070503 77 280 1.0 3.0 0.00 0.00 0.00 33 1020.9
20260906070003 77 275 2.0 4.0 0.00 0.00 0.00 33 1020.8
20260906065503 77 269 2.0 4.0 0.00 0.00 0.00 34 1020.5
20260906065003 77 260 1.0 3.0 0.00 0.00 0.00 33 1020.6
20260906064524 78 253 3.0 4.0 0.00 0.00 0.00 33 1020.8
20260906064003 78 225 3.0 4.0 0.00 0.00 0.00 33 1020.5
20260906063524 78 210 2.0 6.0 0.00 0.00 0.00 33 1020.6
20260906063003 79 291 1.0 6.0 0.00 0.00 0.00 32 1020.8
20260906062503 79 353 1.0 2.0 0.00 0.00 0.00 32 1020.6
20260906062003 79 1 1.0 6.0 0.00 0.00 0.00 31 1020.5
20260906061503 80 4 2.0 7.0 0.00 0.00 0.00 31 1020.5
20260906061003 80 8 1.0 7.0 0.00 0.00 0.00 31 1020.9
20260906060503 79 17 1.0 3.0 0.00 0.00 0.00 32 1020.4
20260906060003 78 15 1.0 3.0 0.00 0.00 0.00 33 1020.5
20260906055524 78 10 2.0 3.0 0.00 0.00 0.00 32 1020.3
20260906055003 78 357 1.0 3.0 0.00 0.00 0.00 32 1020.2
20260906054503 79 349 1.0 2.0 0.00 0.00 0.00 32 1020.2
20260906054003 79 347 3.0 7.0 0.00 0.00 0.00 31 1020.1
20260906053503 80 346 4.0 9.0 0.00 0.00 0.00 31 1019.9
20260906053003 80 343 5.0 10.0 0.00 0.00 0.00 31 1020.1
20260906052503 80 343 6.0 11.0 0.00 0.00 0.00 31 1020.1
20260906052003 80 345 7.0 11.0 0.00 0.00 0.00 31 1020.1
20260906051503 80 346 7.0 11.0 0.00 0.00 0.00 31 1019.7
20260906051003 80 346 7.0 11.0 0.00 0.00 0.00 31 1020.1
20260906050503 80 346 7.0 14.0 0.00 0.00 0.00 31 1019.8
20260906050003 80 346 7.0 14.0 0.00 0.00 0.00 30 1019.8
20260906045503 80 346 6.0 10.0 0.00 0.00 0.00 31 1019.8
20260906045025 80 346 6.0 10.0 0.00 0.00 0.00 31 1019.9
20260906044503 80 344 6.0 10.0 0.00 0.00 0.00 31 1020.3
20260906044024 80 343 7.0 11.0 0.00 0.00 0.00 31 1020.1
20260906043503 80 344 7.0 11.0 0.00 0.00 0.00 31 1020.1
20260906043003 80 343 7.0 11.0 0.00 0.00 0.00 31 1020.1
20260906042503 80 344 7.0 11.0 0.00 0.00 0.00 31 1019.7
20260906042003 80 345 7.0 9.0 0.00 0.00 0.00 31 1019.9
20260906041503 80 344 7.0 9.0 0.00 0.00 0.00 30 1019.7
20260906041003 80 343 7.0 9.0 0.00 0.00 0.00 31 1019.7
20260906040503 80 341 7.0 9.0 0.00 0.00 0.00 30 1019.8
20260906040024 80 341 7.0 9.0 0.00 0.00 0.00 30 1019.9
20260906035503 80 343 6.0 8.0 0.00 0.00 0.00 30 1019.8
20260906035003 80 342 6.0 9.0 0.00 0.00 0.00 30 1019.9
20260906034503 81 340 6.0 9.0 0.00 0.00 0.00 30 1020.2
20260906034004 81 339 6.0 8.0 0.00 0.00 0.00 30 1020.2
20260906033503 81 337 6.0 8.0 0.00 0.00 0.00 30 1019.8
20260906033003 81 337 6.0 8.0 0.00 0.00 0.00 30 1020.1
20260906032524 82 339 6.0 8.0 0.00 0.00 0.00 30 1019.5
20260906032003 82 339 6.0 8.0 0.00 0.00 0.00 29 1019.4
20260906031503 82 339 6.0 8.0 0.00 0.00 0.00 29 1019.5
20260906031003 82 339 6.0 9.0 0.00 0.00 0.00 29 1019.4
20260906030524 82 338 6.0 9.0 0.00 0.00 0.00 29 1019.2
20260906030003 83 339 6.0 8.0 0.00 0.00 0.00 29 1019.1
20260906025503 83 342 6.0 8.0 0.00 0.00 0.00 28 1019.2
20260906025003 84 345 6.0 9.0 0.00 0.00 0.00 28 1019.4
20260906024503 84 344 6.0 10.0 0.00 0.00 0.00 28 1019.1
20260906024003 84 345 7.0 11.0 0.00 0.00 0.00 28 1019.0
20260906023524 85 345 7.0 11.0 0.00 0.00 0.00 28 1019.1
20260906023003 85 338 7.0 10.0 0.00 0.00 0.00 28 1018.9
20260906022503 85 334 7.0 9.0 0.00 0.00 0.00 28 1018.9
20260906022024 86 331 6.0 9.0 0.00 0.00 0.00 28 1018.9
20260906021503 86 331 5.0 8.0 0.00 0.00 0.00 28 1019.0
20260906021003 86 336 4.0 6.0 0.00 0.00 0.00 28 1019.1
20260906020503 86 339 5.0 7.0 0.00 0.00 0.00 28 1018.9
20260906020003 87 336 6.0 9.0 0.00 0.00 0.00 28 1018.8
20260906015503 87 316 5.0 9.0 0.00 0.00 0.00 28 1018.8
20260906015004 87 278 3.0 4.0 0.00 0.00 0.00 30 1018.8
20260906014503 87 269 2.0 3.0 0.00 0.00 0.00 30 1018.3
20260906014003 87 268 2.0 3.0 0.00 0.00 0.00 30 1018.4
20260906013503 87 271 3.0 4.0 0.00 0.00 0.00 29 1018.4
20260906013003 88 276 3.0 4.0 0.00 0.00 0.00 29 1018.7
20260906012503 88 291 3.0 4.0 0.00 0.00 0.00 29 1018.4
20260906012003 89 305 3.0 4.0 0.00 0.00 0.00 29 1018.5
20260906011504 89 311 4.0 6.0 0.00 0.00 0.00 28 1018.5
20260906011003 89 314 3.0 6.0 0.00 0.00 0.00 28 1018.5
20260906010503 89 312 3.0 6.0 0.00 0.00 0.00 28 1018.5
20260906010024 89 313 3.0 6.0 0.00 0.00 0.00 28 1018.7
20260906005503 89 326 3.0 7.0 0.00 0.00 0.00 28 1018.9
20260906005003 90 327 6.0 9.0 0.00 0.00 0.00 27 1018.8
20260906004524 90 327 6.0 9.0 0.00 0.00 0.00 27 1018.7
20260906004003 90 323 6.0 10.0 0.00 0.00 0.00 27 1018.8
20260906003503 90 318 7.0 10.0 0.00 0.00 0.00 27 1018.7
20260906003024 91 322 6.0 9.0 0.00 0.00 0.00 26 1018.4
20260906002524 90 335 7.0 10.0 0.00 0.00 0.00 27 1018.4
20260906002024 90 334 7.0 10.0 0.00 0.00 0.00 27 1018.5
20260906001503 91 331 6.0 9.0 0.00 0.00 0.00 26 1018.4
20260906001004 91 339 5.0 10.0 0.00 0.00 0.00 26 1018.3
20260906000503 92 341 6.0 10.0 0.00 0.00 0.00 26 1018.5
20260906000024 91 327 5.0 10.0 0.00 0.00 0.00 26 1018.5
20260905235503 91 324 4.0 7.0 0.00 0.00 0.00 26 1018.3
20260905235003 92 345 3.0 7.0 0.00 0.00 0.00 26 1018.4
20260905234503 92 334 3.0 7.0 0.00 0.00 0.00 26 1018.7
20260905234003 92 332 3.0 7.0 0.00 0.00 0.00 26 1018.7